owner,sensor,date,latitude,longitude,vertical_datum,mass_concentration_of_oxygen_in_sea_water,qcFlag 
DISL,ioos:station:DISL:DISL:1,2010-12-01T00:00:00Z,30.2513,-88.0778,7.04,7.73,1111122 
DISL,ioos:station:DISL:DISL:1,2010-12-01T00:30:00Z,30.2513,-88.0778,7.01,7.69,1111122 
DISL,ioos:station:DISL:DISL:1,2010-12-01T01:00:00Z,30.2513,-88.0778,6.864,7.69,1111122 
DISL,ioos:station:DISL:DISL:1,2010-12-01T01:30:00Z,30.2513,-88.0778,6.798,7.77,1111122 
DISL,ioos:station:DISL:DISL:1,2010-12-01T02:00:00Z,30.2513,-88.0778,6.957,7.77,1111122 
DISL,ioos:station:DISL:DISL:1,2010-12-01T02:30:00Z,30.2513,-88.0778,6.911,7.86,1111122 
DISL,ioos:station:DISL:DISL:1,2010-12-01T03:00:00Z,30.2513,-88.0778,7.16,7.93,1111122 
DISL,ioos:station:DISL:DISL:1,2010-12-01T03:30:00Z,30.2513,-88.0778,6.996,7.94,1111122 
DISL,ioos:station:DISL:DISL:1,2010-12-01T04:00:00Z,30.2513,-88.0778,6.953,7.98,1111122 
DISL,ioos:station:DISL:DISL:1,2010-12-01T04:30:00Z,30.2513,-88.0778,6.714,7.97,1111122 
DISL,ioos:station:DISL:DISL:1,2010-12-01T05:00:00Z,30.2513,-88.0778,6.67,7.96,1111122 
DISL,ioos:station:DISL:DISL:1,2010-12-01T05:30:00Z,30.2513,-88.0778,6.626,7.97,1111122 
DISL,ioos:station:DISL:DISL:1,2010-12-01T06:00:00Z,30.2513,-88.0778,6.667,8.01,1111122 
DISL,ioos:station:DISL:DISL:1,2010-12-01T06:30:00Z,30.2513,-88.0778,6.575,8.02,1111122 
DISL,ioos:station:DISL:DISL:1,2010-12-01T07:00:00Z,30.2513,-88.0778,6.4,8.04,1111122 
DISL,ioos:station:DISL:DISL:1,2010-12-01T07:30:00Z,30.2513,-88.0778,6.249,8.09,1111122 
DISL,ioos:station:DISL:DISL:1,2010-12-01T08:00:00Z,30.2513,-88.0778,6.51,8.28,1111122 
DISL,ioos:station:DISL:DISL:1,2010-12-01T08:30:00Z,30.2513,-88.0778,6.272,8.26,1111122 
DISL,ioos:station:DISL:DISL:1,2010-12-01T09:00:00Z,30.2513,-88.0778,6.387,8.23,1111122 
DISL,ioos:station:DISL:DISL:1,2010-12-01T09:30:00Z,30.2513,-88.0778,5.794,8.28,1111122 
DISL,ioos:station:DISL:DISL:1,2010-12-01T10:00:00Z,30.2513,-88.0778,5.991,8.31,1111122 
DISL,ioos:station:DISL:DISL:1,2010-12-01T10:30:00Z,30.2513,-88.0778,5.423,8.39,1111122 
DISL,ioos:station:DISL:DISL:1,2010-12-01T11:00:00Z,30.2513,-88.0778,6.018,8.43,1111122 
DISL,ioos:station:DISL:DISL:1,2010-12-01T11:30:00Z,30.2513,-88.0778,5.523,8.32,1111122 
DISL,ioos:station:DISL:DISL:1,2010-12-01T12:00:00Z,30.2513,-88.0778,5.741,8.3,1111122 
DISL,ioos:station:DISL:DISL:1,2010-12-01T12:30:00Z,30.2513,-88.0778,5.869,8.56,1111122 
DISL,ioos:station:DISL:DISL:1,2010-12-01T13:00:00Z,30.2513,-88.0778,5.594,8.31,1111122 
DISL,ioos:station:DISL:DISL:1,2010-12-01T13:30:00Z,30.2513,-88.0778,6.02,8.31,1111122 
DISL,ioos:station:DISL:DISL:1,2010-12-01T14:00:00Z,30.2513,-88.0778,6.091,8.39,1111122 
DISL,ioos:station:DISL:DISL:1,2010-12-01T14:30:00Z,30.2513,-88.0778,6.008,8.38,1111122 
DISL,ioos:station:DISL:DISL:1,2010-12-01T15:00:00Z,30.2513,-88.0778,6.157,8.38,1111122 
DISL,ioos:station:DISL:DISL:1,2010-12-01T15:30:00Z,30.2513,-88.0778,6.103,8.47,1111122 
DISL,ioos:station:DISL:DISL:1,2010-12-01T16:00:00Z,30.2513,-88.0778,6.191,8.71,1111122 
DISL,ioos:station:DISL:DISL:1,2010-12-01T16:30:00Z,30.2513,-88.0778,6.119,8.77,1111122 
DISL,ioos:station:DISL:DISL:1,2010-12-01T17:00:00Z,30.2513,-88.0778,6.31,8.84,1111122 
DISL,ioos:station:DISL:DISL:1,2010-12-01T17:30:00Z,30.2513,-88.0778,6.325,8.95,1111122 
DISL,ioos:station:DISL:DISL:1,2010-12-01T18:00:00Z,30.2513,-88.0778,6.368,9.08,1111122 
DISL,ioos:station:DISL:DISL:1,2010-12-01T18:30:00Z,30.2513,-88.0778,6.353,9.17,1111122 
DISL,ioos:station:DISL:DISL:1,2010-12-01T19:00:00Z,30.2513,-88.0778,6.417,9.3,1111122 
DISL,ioos:station:DISL:DISL:1,2010-12-01T19:30:00Z,30.2513,-88.0778,6.427,9.21,1111122 
DISL,ioos:station:DISL:DISL:1,2010-12-01T20:00:00Z,30.2513,-88.0778,6.461,9.42,1111122 
DISL,ioos:station:DISL:DISL:1,2010-12-01T20:30:00Z,30.2513,-88.0778,6.486,9.46,1111122 
DISL,ioos:station:DISL:DISL:1,2010-12-01T21:00:00Z,30.2513,-88.0778,6.536,9.28,1111122 
DISL,ioos:station:DISL:DISL:1,2010-12-01T21:30:00Z,30.2513,-88.0778,6.549,9.11,1111122 
DISL,ioos:station:DISL:DISL:1,2010-12-01T22:00:00Z,30.2513,-88.0778,6.561,9.06,1111122 
DISL,ioos:station:DISL:DISL:1,2010-12-01T22:30:00Z,30.2513,-88.0778,6.654,9.41,1111122 
DISL,ioos:station:DISL:DISL:1,2010-12-01T23:00:00Z,30.2513,-88.0778,6.685,9.76,1111122 
DISL,ioos:station:DISL:DISL:1,2010-12-01T23:30:00Z,30.2513,-88.0778,6.689,9.7,1111122 
DISL,ioos:station:DISL:DISL:1,2010-12-02T00:00:00Z,30.2513,-88.0778,6.709,9.68,1111122 
DISL,ioos:station:DISL:DISL:1,2010-12-02T00:30:00Z,30.2513,-88.0778,6.75,9.71,1111122 
DISL,ioos:station:DISL:DISL:1,2010-12-02T01:00:00Z,30.2513,-88.0778,6.742,9.63,1111122 
DISL,ioos:station:DISL:DISL:1,2010-12-02T01:30:00Z,30.2513,-88.0778,6.737,9.49,1111122 
DISL,ioos:station:DISL:DISL:1,2010-12-02T02:00:00Z,30.2513,-88.0778,6.706,9.43,1111122 
DISL,ioos:station:DISL:DISL:1,2010-12-02T02:30:00Z,30.2513,-88.0778,6.678,9.35,1111122 
DISL,ioos:station:DISL:DISL:1,2010-12-02T03:00:00Z,30.2513,-88.0778,6.662,9.35,1111122 
DISL,ioos:station:DISL:DISL:1,2010-12-02T03:30:00Z,30.2513,-88.0778,6.563,9.33,1111122 
DISL,ioos:station:DISL:DISL:1,2010-12-02T04:00:00Z,30.2513,-88.0778,6.516,9.32,1111122 
DISL,ioos:station:DISL:DISL:1,2010-12-02T04:30:00Z,30.2513,-88.0778,6.412,9.25,1111122 
DISL,ioos:station:DISL:DISL:1,2010-12-02T05:00:00Z,30.2513,-88.0778,6.318,9.2,1111122 
DISL,ioos:station:DISL:DISL:1,2010-12-02T05:30:00Z,30.2513,-88.0778,6.262,9.17,1111122 
DISL,ioos:station:DISL:DISL:1,2010-12-02T06:00:00Z,30.2513,-88.0778,6.149,9.15,1111122 
DISL,ioos:station:DISL:DISL:1,2010-12-02T06:30:00Z,30.2513,-88.0778,6.052,9.22,1111122 
DISL,ioos:station:DISL:DISL:1,2010-12-02T07:00:00Z,30.2513,-88.0778,5.941,9.26,1111122 
DISL,ioos:station:DISL:DISL:1,2010-12-02T07:30:00Z,30.2513,-88.0778,5.813,9.27,1111122 
DISL,ioos:station:DISL:DISL:1,2010-12-02T08:00:00Z,30.2513,-88.0778,5.77,9.21,1111122 
DISL,ioos:station:DISL:DISL:1,2010-12-02T08:30:00Z,30.2513,-88.0778,5.704,9.2,1111122 
DISL,ioos:station:DISL:DISL:1,2010-12-02T09:00:00Z,30.2513,-88.0778,5.644,9.15,1111122 
DISL,ioos:station:DISL:DISL:1,2010-12-02T09:30:00Z,30.2513,-88.0778,5.608,9.18,1111122 
DISL,ioos:station:DISL:DISL:1,2010-12-02T10:00:00Z,30.2513,-88.0778,5.571,9.14,1111122 
DISL,ioos:station:DISL:DISL:1,2010-12-02T10:30:00Z,30.2513,-88.0778,5.514,9.14,1111122 
DISL,ioos:station:DISL:DISL:1,2010-12-02T11:00:00Z,30.2513,-88.0778,5.496,9.13,1111122 
DISL,ioos:station:DISL:DISL:1,2010-12-02T11:30:00Z,30.2513,-88.0778,5.499,9.16,1111122 
DISL,ioos:station:DISL:DISL:1,2010-12-02T12:00:00Z,30.2513,-88.0778,5.534,9.04,1111122 
DISL,ioos:station:DISL:DISL:1,2010-12-02T12:30:00Z,30.2513,-88.0778,5.539,8.98,1111122 
DISL,ioos:station:DISL:DISL:1,2010-12-02T13:00:00Z,30.2513,-88.0778,5.641,9.1,1111122 
DISL,ioos:station:DISL:DISL:1,2010-12-02T13:30:00Z,30.2513,-88.0778,5.671,9.07,1111122 
DISL,ioos:station:DISL:DISL:1,2010-12-02T14:00:00Z,30.2513,-88.0778,5.676,9.05,1111122 
DISL,ioos:station:DISL:DISL:1,2010-12-02T14:30:00Z,30.2513,-88.0778,5.715,9.04,1111122 
DISL,ioos:station:DISL:DISL:1,2010-12-02T15:00:00Z,30.2513,-88.0778,5.227,8.95,1111122 
DISL,ioos:station:DISL:DISL:1,2010-12-02T15:30:00Z,30.2513,-88.0778,5.693,8.93,1111122 
DISL,ioos:station:DISL:DISL:1,2010-12-02T16:00:00Z,30.2513,-88.0778,5.718,9.08,1111122 
DISL,ioos:station:DISL:DISL:1,2010-12-02T16:30:00Z,30.2513,-88.0778,5.76,9.15,1111122 
DISL,ioos:station:DISL:DISL:1,2010-12-02T17:00:00Z,30.2513,-88.0778,5.808,9.18,1111122 
DISL,ioos:station:DISL:DISL:1,2010-12-02T17:30:00Z,30.2513,-88.0778,5.865,9.34,1111122 
DISL,ioos:station:DISL:DISL:1,2010-12-02T18:00:00Z,30.2513,-88.0778,5.922,9.33,1111122 
DISL,ioos:station:DISL:DISL:1,2010-12-02T18:30:00Z,30.2513,-88.0778,5.978,9.39,1111122 
DISL,ioos:station:DISL:DISL:1,2010-12-02T19:00:00Z,30.2513,-88.0778,6.008,9.5,1111122 
DISL,ioos:station:DISL:DISL:1,2010-12-02T19:30:00Z,30.2513,-88.0778,6.099,9.58,1111122 
DISL,ioos:station:DISL:DISL:1,2010-12-02T20:00:00Z,30.2513,-88.0778,6.153,9.32,1111122 
DISL,ioos:station:DISL:DISL:1,2010-12-02T20:30:00Z,30.2513,-88.0778,6.194,9.32,1111122 
DISL,ioos:station:DISL:DISL:1,2010-12-02T21:00:00Z,30.2513,-88.0778,6.253,9.66,1111122 
DISL,ioos:station:DISL:DISL:1,2010-12-02T21:30:00Z,30.2513,-88.0778,6.37,9.89,1111122 
DISL,ioos:station:DISL:DISL:1,2010-12-02T22:00:00Z,30.2513,-88.0778,6.409,9.88,1111122 
DISL,ioos:station:DISL:DISL:1,2010-12-02T22:30:00Z,30.2513,-88.0778,6.545,9.9,1111122 
DISL,ioos:station:DISL:DISL:1,2010-12-02T23:00:00Z,30.2513,-88.0778,6.613,9.88,1111122 
DISL,ioos:station:DISL:DISL:1,2010-12-02T23:30:00Z,30.2513,-88.0778,6.656,9.79,1111122 
DISL,ioos:station:DISL:DISL:1,2010-12-03T00:00:00Z,30.2513,-88.0778,6.733,9.78,1111122 
DISL,ioos:station:DISL:DISL:1,2010-12-03T00:30:00Z,30.2513,-88.0778,6.837,9.7,1111122 
DISL,ioos:station:DISL:DISL:1,2010-12-03T01:00:00Z,30.2513,-88.0778,6.882,9.75,1111122 
DISL,ioos:station:DISL:DISL:1,2010-12-03T01:30:00Z,30.2513,-88.0778,6.899,9.72,1111122 
DISL,ioos:station:DISL:DISL:1,2010-12-03T02:00:00Z,30.2513,-88.0778,6.911,9.65,1111122 
DISL,ioos:station:DISL:DISL:1,2010-12-03T02:30:00Z,30.2513,-88.0778,6.875,9.64,1111122 
DISL,ioos:station:DISL:DISL:1,2010-12-03T03:00:00Z,30.2513,-88.0778,6.874,9.57,1111122 
DISL,ioos:station:DISL:DISL:1,2010-12-03T03:30:00Z,30.2513,-88.0778,6.817,9.47,1111122 
DISL,ioos:station:DISL:DISL:1,2010-12-03T04:00:00Z,30.2513,-88.0778,6.735,9.47,1111122 
DISL,ioos:station:DISL:DISL:1,2010-12-03T04:30:00Z,30.2513,-88.0778,6.658,9.42,1111122 
DISL,ioos:station:DISL:DISL:1,2010-12-03T05:00:00Z,30.2513,-88.0778,6.553,9.39,1111122 
DISL,ioos:station:DISL:DISL:1,2010-12-03T05:30:00Z,30.2513,-88.0778,6.442,9.29,1111122 
DISL,ioos:station:DISL:DISL:1,2010-12-03T06:00:00Z,30.2513,-88.0778,6.3,9.77,1111122 
DISL,ioos:station:DISL:DISL:1,2010-12-03T06:30:00Z,30.2513,-88.0778,6.152,10.32,1111122 
DISL,ioos:station:DISL:DISL:1,2010-12-03T07:00:00Z,30.2513,-88.0778,6.048,10.01,1111122 
DISL,ioos:station:DISL:DISL:1,2010-12-03T07:30:00Z,30.2513,-88.0778,5.994,10.0,1111122 
DISL,ioos:station:DISL:DISL:1,2010-12-03T08:00:00Z,30.2513,-88.0778,5.896,9.86,1111122 
DISL,ioos:station:DISL:DISL:1,2010-12-03T08:30:00Z,30.2513,-88.0778,5.876,9.67,1111122 
DISL,ioos:station:DISL:DISL:1,2010-12-03T09:00:00Z,30.2513,-88.0778,5.827,9.65,1111122 
DISL,ioos:station:DISL:DISL:1,2010-12-03T09:30:00Z,30.2513,-88.0778,5.748,9.66,1111122 
DISL,ioos:station:DISL:DISL:1,2010-12-03T10:00:00Z,30.2513,-88.0778,5.653,9.64,1111122 
DISL,ioos:station:DISL:DISL:1,2010-12-03T10:30:00Z,30.2513,-88.0778,5.555,9.61,1111122 
DISL,ioos:station:DISL:DISL:1,2010-12-03T11:00:00Z,30.2513,-88.0778,5.496,9.61,1111122 
DISL,ioos:station:DISL:DISL:1,2010-12-03T11:30:00Z,30.2513,-88.0778,5.44,9.63,1111122 
DISL,ioos:station:DISL:DISL:1,2010-12-03T12:00:00Z,30.2513,-88.0778,5.309,9.59,1111122 
DISL,ioos:station:DISL:DISL:1,2010-12-03T12:30:00Z,30.2513,-88.0778,5.379,9.53,1111122 
DISL,ioos:station:DISL:DISL:1,2010-12-03T13:00:00Z,30.2513,-88.0778,5.406,9.6,1111122 
DISL,ioos:station:DISL:DISL:1,2010-12-03T13:30:00Z,30.2513,-88.0778,5.405,9.57,1111122 
DISL,ioos:station:DISL:DISL:1,2010-12-03T14:00:00Z,30.2513,-88.0778,5.456,9.57,1111122 
DISL,ioos:station:DISL:DISL:1,2010-12-03T14:30:00Z,30.2513,-88.0778,5.5,9.59,1111122 
DISL,ioos:station:DISL:DISL:1,2010-12-03T15:00:00Z,30.2513,-88.0778,5.548,9.58,1111122 
DISL,ioos:station:DISL:DISL:1,2010-12-03T15:30:00Z,30.2513,-88.0778,5.571,9.45,1111122 
DISL,ioos:station:DISL:DISL:1,2010-12-03T16:00:00Z,30.2513,-88.0778,5.574,9.46,1111122 
DISL,ioos:station:DISL:DISL:1,2010-12-03T16:30:00Z,30.2513,-88.0778,5.632,9.56,1111122 
DISL,ioos:station:DISL:DISL:1,2010-12-03T17:00:00Z,30.2513,-88.0778,5.662,9.67,1111122 
DISL,ioos:station:DISL:DISL:1,2010-12-03T17:30:00Z,30.2513,-88.0778,5.707,9.76,1111122 
DISL,ioos:station:DISL:DISL:1,2010-12-03T18:00:00Z,30.2513,-88.0778,5.733,9.77,1111122 
DISL,ioos:station:DISL:DISL:1,2010-12-03T18:30:00Z,30.2513,-88.0778,5.771,9.8,1111122 
DISL,ioos:station:DISL:DISL:1,2010-12-03T19:00:00Z,30.2513,-88.0778,5.85,9.9,1111122 
DISL,ioos:station:DISL:DISL:1,2010-12-03T19:30:00Z,30.2513,-88.0778,5.918,9.93,1111122 
DISL,ioos:station:DISL:DISL:1,2010-12-03T20:00:00Z,30.2513,-88.0778,5.993,9.82,1111122 
DISL,ioos:station:DISL:DISL:1,2010-12-03T20:30:00Z,30.2513,-88.0778,6.055,9.98,1111122 
DISL,ioos:station:DISL:DISL:1,2010-12-03T21:00:00Z,30.2513,-88.0778,6.121,10.08,1111122 
DISL,ioos:station:DISL:DISL:1,2010-12-03T21:30:00Z,30.2513,-88.0778,6.222,10.03,1111122 
DISL,ioos:station:DISL:DISL:1,2010-12-03T22:00:00Z,30.2513,-88.0778,6.18,9.99,1111122 
DISL,ioos:station:DISL:DISL:1,2010-12-03T22:30:00Z,30.2513,-88.0778,6.393,9.93,1111122 
DISL,ioos:station:DISL:DISL:1,2010-12-03T23:00:00Z,30.2513,-88.0778,6.543,9.8,1111122 
DISL,ioos:station:DISL:DISL:1,2010-12-03T23:30:00Z,30.2513,-88.0778,6.657,9.77,1111122 
DISL,ioos:station:DISL:DISL:1,2010-12-04T00:00:00Z,30.2513,-88.0778,6.777,9.76,1111122 
DISL,ioos:station:DISL:DISL:1,2010-12-04T00:30:00Z,30.2513,-88.0778,6.87,9.79,1111122 
DISL,ioos:station:DISL:DISL:1,2010-12-04T01:00:00Z,30.2513,-88.0778,6.938,9.73,1111122 
DISL,ioos:station:DISL:DISL:1,2010-12-04T01:30:00Z,30.2513,-88.0778,6.975,9.77,1111122 
DISL,ioos:station:DISL:DISL:1,2010-12-04T02:00:00Z,30.2513,-88.0778,7.03,9.73,1111122 
DISL,ioos:station:DISL:DISL:1,2010-12-04T02:30:00Z,30.2513,-88.0778,7.02,9.7,1111122 
DISL,ioos:station:DISL:DISL:1,2010-12-04T03:00:00Z,30.2513,-88.0778,7.0,9.69,1111122 
DISL,ioos:station:DISL:DISL:1,2010-12-04T03:30:00Z,30.2513,-88.0778,6.959,9.74,1111122 
DISL,ioos:station:DISL:DISL:1,2010-12-04T04:00:00Z,30.2513,-88.0778,6.916,9.73,1111122 
DISL,ioos:station:DISL:DISL:1,2010-12-04T04:30:00Z,30.2513,-88.0778,6.852,9.75,1111122 
DISL,ioos:station:DISL:DISL:1,2010-12-04T05:00:00Z,30.2513,-88.0778,6.75,9.7,1111122 
DISL,ioos:station:DISL:DISL:1,2010-12-04T05:30:00Z,30.2513,-88.0778,6.623,9.66,1111122 
DISL,ioos:station:DISL:DISL:1,2010-12-04T06:00:00Z,30.2513,-88.0778,6.561,9.66,1111122 
DISL,ioos:station:DISL:DISL:1,2010-12-04T06:30:00Z,30.2513,-88.0778,6.428,9.65,1111122 
DISL,ioos:station:DISL:DISL:1,2010-12-04T07:00:00Z,30.2513,-88.0778,6.326,9.6,1111122 
DISL,ioos:station:DISL:DISL:1,2010-12-04T07:30:00Z,30.2513,-88.0778,6.192,9.63,1111122 
DISL,ioos:station:DISL:DISL:1,2010-12-04T08:00:00Z,30.2513,-88.0778,6.064,9.61,1111122 
DISL,ioos:station:DISL:DISL:1,2010-12-04T08:30:00Z,30.2513,-88.0778,5.886,9.39,1111122 
DISL,ioos:station:DISL:DISL:1,2010-12-04T09:00:00Z,30.2513,-88.0778,5.792,9.27,1111122 
DISL,ioos:station:DISL:DISL:1,2010-12-04T09:30:00Z,30.2513,-88.0778,5.69,9.18,1111122 
DISL,ioos:station:DISL:DISL:1,2010-12-04T10:00:00Z,30.2513,-88.0778,5.535,9.09,1111122 
DISL,ioos:station:DISL:DISL:1,2010-12-04T10:30:00Z,30.2513,-88.0778,5.528,9.0,1111122 
DISL,ioos:station:DISL:DISL:1,2010-12-04T11:00:00Z,30.2513,-88.0778,5.449,8.91,1111122 
DISL,ioos:station:DISL:DISL:1,2010-12-04T11:30:00Z,30.2513,-88.0778,5.327,9.12,1111122 
DISL,ioos:station:DISL:DISL:1,2010-12-04T12:00:00Z,30.2513,-88.0778,5.336,9.21,1111122 
DISL,ioos:station:DISL:DISL:1,2010-12-04T12:30:00Z,30.2513,-88.0778,5.247,9.28,1111122 
DISL,ioos:station:DISL:DISL:1,2010-12-04T13:00:00Z,30.2513,-88.0778,5.254,9.42,1111122 
DISL,ioos:station:DISL:DISL:1,2010-12-04T13:30:00Z,30.2513,-88.0778,5.234,9.54,1111122 
DISL,ioos:station:DISL:DISL:1,2010-12-04T14:00:00Z,30.2513,-88.0778,5.257,9.72,1111122 
DISL,ioos:station:DISL:DISL:1,2010-12-04T14:30:00Z,30.2513,-88.0778,5.314,9.76,1111122 
DISL,ioos:station:DISL:DISL:1,2010-12-04T15:00:00Z,30.2513,-88.0778,5.325,9.9,1111122 
DISL,ioos:station:DISL:DISL:1,2010-12-04T15:30:00Z,30.2513,-88.0778,5.373,9.87,1111122 
DISL,ioos:station:DISL:DISL:1,2010-12-04T16:00:00Z,30.2513,-88.0778,5.384,9.81,1111122 
DISL,ioos:station:DISL:DISL:1,2010-12-04T16:30:00Z,30.2513,-88.0778,5.415,9.68,1111122 
DISL,ioos:station:DISL:DISL:1,2010-12-04T17:00:00Z,30.2513,-88.0778,5.427,9.85,1111122 
DISL,ioos:station:DISL:DISL:1,2010-12-04T17:30:00Z,30.2513,-88.0778,5.452,9.83,1111122 
DISL,ioos:station:DISL:DISL:1,2010-12-04T18:00:00Z,30.2513,-88.0778,5.455,9.65,1111122 
DISL,ioos:station:DISL:DISL:1,2010-12-04T18:30:00Z,30.2513,-88.0778,5.45,9.59,1111122 
DISL,ioos:station:DISL:DISL:1,2010-12-04T19:00:00Z,30.2513,-88.0778,5.5,9.5,1111122 
DISL,ioos:station:DISL:DISL:1,2010-12-04T19:30:00Z,30.2513,-88.0778,5.55,9.57,1111122 
DISL,ioos:station:DISL:DISL:1,2010-12-04T20:00:00Z,30.2513,-88.0778,5.666,9.59,1111122 
DISL,ioos:station:DISL:DISL:1,2010-12-04T20:30:00Z,30.2513,-88.0778,5.804,9.71,1111122 
DISL,ioos:station:DISL:DISL:1,2010-12-04T21:00:00Z,30.2513,-88.0778,5.868,9.46,1111122 
DISL,ioos:station:DISL:DISL:1,2010-12-04T21:30:00Z,30.2513,-88.0778,5.972,9.44,1111122 
DISL,ioos:station:DISL:DISL:1,2010-12-04T22:00:00Z,30.2513,-88.0778,6.031,9.47,1111122 
DISL,ioos:station:DISL:DISL:1,2010-12-04T22:30:00Z,30.2513,-88.0778,6.13,9.49,1111122 
DISL,ioos:station:DISL:DISL:1,2010-12-04T23:00:00Z,30.2513,-88.0778,6.266,9.36,1111122 
DISL,ioos:station:DISL:DISL:1,2010-12-04T23:30:00Z,30.2513,-88.0778,6.393,9.5,1111122 
DISL,ioos:station:DISL:DISL:1,2010-12-05T00:00:00Z,30.2513,-88.0778,6.566,9.37,1111122 
DISL,ioos:station:DISL:DISL:1,2010-12-05T00:30:00Z,30.2513,-88.0778,6.716,9.31,1111122 
DISL,ioos:station:DISL:DISL:1,2010-12-05T01:00:00Z,30.2513,-88.0778,6.681,9.44,1111122 
DISL,ioos:station:DISL:DISL:1,2010-12-05T01:30:00Z,30.2513,-88.0778,6.808,9.32,1111122 
DISL,ioos:station:DISL:DISL:1,2010-12-05T02:00:00Z,30.2513,-88.0778,6.842,9.28,1111122 
DISL,ioos:station:DISL:DISL:1,2010-12-05T02:30:00Z,30.2513,-88.0778,6.846,9.24,1111122 
DISL,ioos:station:DISL:DISL:1,2010-12-05T03:00:00Z,30.2513,-88.0778,6.875,9.22,1111122 
DISL,ioos:station:DISL:DISL:1,2010-12-05T03:30:00Z,30.2513,-88.0778,6.746,9.29,1111122 
DISL,ioos:station:DISL:DISL:1,2010-12-05T04:00:00Z,30.2513,-88.0778,6.815,9.15,1111122 
DISL,ioos:station:DISL:DISL:1,2010-12-05T04:30:00Z,30.2513,-88.0778,6.763,9.16,1111122 
DISL,ioos:station:DISL:DISL:1,2010-12-05T05:00:00Z,30.2513,-88.0778,6.703,9.09,1111122 
DISL,ioos:station:DISL:DISL:1,2010-12-05T05:30:00Z,30.2513,-88.0778,6.58,9.06,1111122 
DISL,ioos:station:DISL:DISL:1,2010-12-05T06:00:00Z,30.2513,-88.0778,6.497,8.99,1111122 
DISL,ioos:station:DISL:DISL:1,2010-12-05T06:30:00Z,30.2513,-88.0778,6.381,9.08,1111122 
DISL,ioos:station:DISL:DISL:1,2010-12-05T07:00:00Z,30.2513,-88.0778,6.261,9.01,1111122 
DISL,ioos:station:DISL:DISL:1,2010-12-05T07:30:00Z,30.2513,-88.0778,6.169,9.05,1111122 
DISL,ioos:station:DISL:DISL:1,2010-12-05T08:00:00Z,30.2513,-88.0778,6.164,8.87,1111122 
DISL,ioos:station:DISL:DISL:1,2010-12-05T08:30:00Z,30.2513,-88.0778,6.001,8.78,1111122 
DISL,ioos:station:DISL:DISL:1,2010-12-05T09:00:00Z,30.2513,-88.0778,5.952,8.66,1111122 
DISL,ioos:station:DISL:DISL:1,2010-12-05T09:30:00Z,30.2513,-88.0778,5.842,8.57,1111122 
DISL,ioos:station:DISL:DISL:1,2010-12-05T10:00:00Z,30.2513,-88.0778,6.109,8.58,1111122 
DISL,ioos:station:DISL:DISL:1,2010-12-05T10:30:00Z,30.2513,-88.0778,5.444,8.53,1111122 
DISL,ioos:station:DISL:DISL:1,2010-12-05T11:00:00Z,30.2513,-88.0778,4.987,8.47,1111122 
DISL,ioos:station:DISL:DISL:1,2010-12-05T11:30:00Z,30.2513,-88.0778,5.526,8.47,1111122 
DISL,ioos:station:DISL:DISL:1,2010-12-05T12:00:00Z,30.2513,-88.0778,5.514,8.52,1111122 
DISL,ioos:station:DISL:DISL:1,2010-12-05T12:30:00Z,30.2513,-88.0778,5.126,8.51,1111122 
DISL,ioos:station:DISL:DISL:1,2010-12-05T13:00:00Z,30.2513,-88.0778,5.352,8.56,1111122 
DISL,ioos:station:DISL:DISL:1,2010-12-05T13:30:00Z,30.2513,-88.0778,5.184,8.61,1111122 
DISL,ioos:station:DISL:DISL:1,2010-12-05T14:00:00Z,30.2513,-88.0778,5.522,8.69,1111122 
DISL,ioos:station:DISL:DISL:1,2010-12-05T14:30:00Z,30.2513,-88.0778,5.308,8.72,1111122 
DISL,ioos:station:DISL:DISL:1,2010-12-05T15:00:00Z,30.2513,-88.0778,5.318,8.92,1111122 
DISL,ioos:station:DISL:DISL:1,2010-12-05T15:30:00Z,30.2513,-88.0778,4.865,8.92,1111122 
DISL,ioos:station:DISL:DISL:1,2010-12-05T16:00:00Z,30.2513,-88.0778,5.428,8.96,1111122 
DISL,ioos:station:DISL:DISL:1,2010-12-05T16:30:00Z,30.2513,-88.0778,5.152,9.01,1111122 
DISL,ioos:station:DISL:DISL:1,2010-12-05T17:00:00Z,30.2513,-88.0778,5.337,9.04,1111122 
DISL,ioos:station:DISL:DISL:1,2010-12-05T17:30:00Z,30.2513,-88.0778,5.125,9.02,1111122 
DISL,ioos:station:DISL:DISL:1,2010-12-05T18:00:00Z,30.2513,-88.0778,5.601,8.97,1111122 
DISL,ioos:station:DISL:DISL:1,2010-12-05T18:30:00Z,30.2513,-88.0778,5.324,8.92,1111122 
DISL,ioos:station:DISL:DISL:1,2010-12-05T19:00:00Z,30.2513,-88.0778,5.359,8.96,1111122 
DISL,ioos:station:DISL:DISL:1,2010-12-05T19:30:00Z,30.2513,-88.0778,5.513,9.02,1111122 
DISL,ioos:station:DISL:DISL:1,2010-12-05T20:00:00Z,30.2513,-88.0778,5.536,9.04,1111122 
DISL,ioos:station:DISL:DISL:1,2010-12-05T20:30:00Z,30.2513,-88.0778,5.709,9.07,1111122 
DISL,ioos:station:DISL:DISL:1,2010-12-05T21:00:00Z,30.2513,-88.0778,5.817,9.29,1111122 
DISL,ioos:station:DISL:DISL:1,2010-12-05T21:30:00Z,30.2513,-88.0778,5.896,9.38,1111122 
DISL,ioos:station:DISL:DISL:1,2010-12-05T22:00:00Z,30.2513,-88.0778,6.095,9.3,1111122 
DISL,ioos:station:DISL:DISL:1,2010-12-05T22:30:00Z,30.2513,-88.0778,6.52,9.18,1111122 
DISL,ioos:station:DISL:DISL:1,2010-12-05T23:00:00Z,30.2513,-88.0778,6.315,9.23,1111122 
DISL,ioos:station:DISL:DISL:1,2010-12-05T23:30:00Z,30.2513,-88.0778,6.661,9.11,1111122 
DISL,ioos:station:DISL:DISL:1,2010-12-06T00:00:00Z,30.2513,-88.0778,6.564,8.98,1111122 
DISL,ioos:station:DISL:DISL:1,2010-12-06T00:30:00Z,30.2513,-88.0778,6.647,8.96,1111122 
DISL,ioos:station:DISL:DISL:1,2010-12-06T01:00:00Z,30.2513,-88.0778,6.814,8.96,1111122 
DISL,ioos:station:DISL:DISL:1,2010-12-06T01:30:00Z,30.2513,-88.0778,6.842,8.69,1111122 
DISL,ioos:station:DISL:DISL:1,2010-12-06T02:00:00Z,30.2513,-88.0778,6.906,8.98,1111122 
DISL,ioos:station:DISL:DISL:1,2010-12-06T02:30:00Z,30.2513,-88.0778,7.14,9.17,1111122 
DISL,ioos:station:DISL:DISL:1,2010-12-06T03:00:00Z,30.2513,-88.0778,7.21,9.2,1111122 
DISL,ioos:station:DISL:DISL:1,2010-12-06T03:30:00Z,30.2513,-88.0778,6.977,9.18,1111122 
DISL,ioos:station:DISL:DISL:1,2010-12-06T04:00:00Z,30.2513,-88.0778,7.26,9.15,1111122 
DISL,ioos:station:DISL:DISL:1,2010-12-06T04:30:00Z,30.2513,-88.0778,7.34,9.16,1111122 
DISL,ioos:station:DISL:DISL:1,2010-12-06T05:00:00Z,30.2513,-88.0778,6.905,9.16,1111122 
DISL,ioos:station:DISL:DISL:1,2010-12-06T05:30:00Z,30.2513,-88.0778,7.26,9.18,1111122 
DISL,ioos:station:DISL:DISL:1,2010-12-06T06:00:00Z,30.2513,-88.0778,6.675,9.21,1111122 
DISL,ioos:station:DISL:DISL:1,2010-12-06T06:30:00Z,30.2513,-88.0778,6.341,9.25,1111122 
DISL,ioos:station:DISL:DISL:1,2010-12-06T07:00:00Z,30.2513,-88.0778,6.67,9.25,1111122 
DISL,ioos:station:DISL:DISL:1,2010-12-06T07:30:00Z,30.2513,-88.0778,6.39,9.28,1111122 
DISL,ioos:station:DISL:DISL:1,2010-12-06T08:00:00Z,30.2513,-88.0778,5.739,9.09,1111122 
DISL,ioos:station:DISL:DISL:1,2010-12-06T08:30:00Z,30.2513,-88.0778,5.468,9.1,1111122 
DISL,ioos:station:DISL:DISL:1,2010-12-06T09:00:00Z,30.2513,-88.0778,5.089,9.05,1111122 
DISL,ioos:station:DISL:DISL:1,2010-12-06T09:30:00Z,30.2513,-88.0778,7.08,9.07,1111122 
DISL,ioos:station:DISL:DISL:1,2010-12-06T10:00:00Z,30.2513,-88.0778,7.19,9.05,1111122 
DISL,ioos:station:DISL:DISL:1,2010-12-06T10:30:00Z,30.2513,-88.0778,7.52,9.17,1111122 
DISL,ioos:station:DISL:DISL:1,2010-12-06T11:00:00Z,30.2513,-88.0778,7.1,9.19,1111122 
DISL,ioos:station:DISL:DISL:1,2010-12-06T11:30:00Z,30.2513,-88.0778,7.97,9.2,1111122 
DISL,ioos:station:DISL:DISL:1,2010-12-06T12:00:00Z,30.2513,-88.0778,6.411,9.12,1111122 
DISL,ioos:station:DISL:DISL:1,2010-12-06T12:30:00Z,30.2513,-88.0778,6.707,9.15,1111122 
DISL,ioos:station:DISL:DISL:1,2010-12-06T13:00:00Z,30.2513,-88.0778,6.311,9.19,1111122 
DISL,ioos:station:DISL:DISL:1,2010-12-06T13:30:00Z,30.2513,-88.0778,6.336,9.24,1111122 
DISL,ioos:station:DISL:DISL:1,2010-12-06T14:00:00Z,30.2513,-88.0778,6.675,9.23,1111122 
DISL,ioos:station:DISL:DISL:1,2010-12-06T14:30:00Z,30.2513,-88.0778,5.958,9.3,1111122 
DISL,ioos:station:DISL:DISL:1,2010-12-06T15:00:00Z,30.2513,-88.0778,5.099,9.41,1111122 
DISL,ioos:station:DISL:DISL:1,2010-12-06T15:30:00Z,30.2513,-88.0778,5.839,9.49,1111122 